User: anonymous   Login
Location: Noordwijk
(52.2400°N, 4.4500°E)
Time: 10:49:09
(UTC+00:00)
Language:

NOAA 19 - Orbit

View from above orbital plane
View from above orbital plane
View from above satellite
View from above satellite

Ground track
Ground track

The orbit data is extracted from the following two-line orbital elements,

1 33591U 09005A   22338.05805504  .00000144  00000-0  10261-3 0  9992
2 33591  99.1289  15.6051 0014773  73.2866 286.9925 14.12645810712398
Epoch (UTC): 04 December 2022 01:23:35
Eccentricity: 0.0014773
inclination: 99.1289°
perigee height: 839 km
apogee height: 861 km
right ascension of ascending node: 15.6051°
argument of perigee: 73.2866°
revolutions per day: 14.12645810
mean anomaly at epoch: 286.9925°
orbit number at epoch: 71239

The dashed part of the orbit path shows where the satellite is in the earth's shadow,  

DLR